Погода в Фаэтано

Сан-Марино     43°55′34″N   12°29′55″E
темп.,
°C
ветер,
м/с
пор.,
м/с
влажн.,
%
обл.,
%
осадки,
мм/ч
давл.,
гПа
погр.,
м
12 апреля, пн
пн1223:00+12ю3578100 0.0 1019175
02:00+12ю3488100 0.8 101993
05:00+12ю468590 0.6 1018186
08:00+12ююв4884100 0.6 1017318
11:00+15ю597093 0.0 10171018
14:00+17ююз5959100 0.0 10161220
17:00+14ю496988 0.2 1015548
20:00+12ю3773100 0.4 1015176
13 апреля, вт
вт1323:00+11ю2490100 4.1 1015120
02:00+10сз3596100 4.6 1015274
05:00+8сз4696100 0.5 1014360
08:00+7з71096100 1.0 1015516
11:00+7зсз71089100 0.2 1017647
14:00+7св7991100 0.9 10191078
17:00+6с4795100 2.1 10201026
20:00+6ссв3694100 4.1 1021580
14 апреля, ср
ср1423:00+6св4782100 0.9 1023679
02:00+6сз248397 1.1 1023230
05:00+5зсз369694 0.2 1024338
08:00+5зсз239392 0.3 1024247
11:00+7сз128494 0.2 1024520
14:00+8ссв237728 0.6 1024689
17:00+10в44595 0.1 1022964
20:00+6юв34633 0.1 1022110
15 апреля, чт
чт1523:00+5ю236216 0.0 102245
02:00+5ююв226770 0.0 102241
05:00+5юз22715 0.0 102129
08:00+7ююв127042 0.0 102191
11:00+10в44555 0.0 10211277
14:00+11всв545610 0.0 10201247
17:00+10всв556041 0.0 1019919
20:00+7вюв346972 0.0 1020159
16 апреля, пт
пт1623:00+5ююз226464 0.0 102134
02:00+5зюз116283 0.0 102025
05:00+4зюз226742 0.0 102029
08:00+6з1166100 0.0 102082
11:00+10всв3459100 0.0 10201081
14:00+11всв4557100 0.0 10191299
17:00+11в5656100 0.0 10181229
20:00+8в3564100 0.0 1017181